Other Public Products
Issued by NWS Grand Forks, ND

Home | Current Version | Previous Version | Text Only | Print | Product List | Glossary Off
Versions: 1 2 3 4 5 6 7 8 9 10 11 12 13 14 15 16 17 18 19 20 21 22 23 24 25 26 27 28 29 30 31 32 33 34 35 36 37 38 39 40 41 42 43 44 45 46 47 48 49 50

005
FPUS83 KFGF 280131
OPUFGF
PRAIRIE TO PINES WEATHER ROUNDUP
NATIONAL WEATHER SERVICE EASTERN NORTH DAKOTA/GRAND FORKS ND
800 PM CDT FRI MAY 27 2016

 **SATELLITE DATA USED TO AUGMENT SKY COVER AT AUTOMATED STATIONS**
 *****  WEATHER ACROSS EASTERN NORTH DAKOTA  *****

CITY           SKY/WX    TMP DP  RH WIND       PRES   REMARKS
GRAND FORKS    CLOUDY    73  55  53 NE9       29.76R
GRAND FORKS AF CLOUDY    72  51  47 E6        29.77S
GRAND CITY NWS   N/A     70 N/A N/A VRB2        N/A
BUXTON           N/A     64  61  88 W2          N/A
DEVILS LAKE    MOSUNNY   66  56  70 N14       29.80S
FARGO          CLOUDY    64  60  87 CALM      29.77S
WAHPETON ARPT  MOCLDY    63  55  77 N7        29.76F
$$

 *****  WEATHER ACROSS CENTRAL AND WESTERN NORTH DAKOTA  *****

CITY           SKY/WX    TMP DP  RH WIND       PRES   REMARKS
JAMESTOWN      CLOUDY    68  51  54 E5        29.77S
BISMARCK       PTSUNNY   67  50  54 E3        29.79R
MINOT          CLOUDY    66  56  70 NE13      29.81S
MINOT AFB      PTSUNNY   62  56  83 NE15      29.81R
GARRISON         N/A     67  51  56 NE5       29.80S
WILLISTON      CLOUDY    62  50  64 N8        29.84R
DICKINSON      CLOUDY    64  44  48 E5        29.79S
HETTINGER      MOSUNNY   66  47  50 E5        29.82S
$$

 *****  OTHER OBSERVATIONS NORTHEAST NORTH DAKOTA  *****

CITY           SKY/WX    TMP DP  RH WIND       PRES   REMARKS
WALHALLA       FAIR      64  64 100 N16G22    29.81S
LANGDON        CLOUDY    61  61 100 N15G21    29.83R
CAVALIER       FAIR      64  59  82 N13       29.79S
GRAFTON        FAIR      70  55  60 NE6       29.79S
CANDO          FAIR      59  59 100 NE14      29.84S
FORT TOTTEN      N/A     69  50  49 N2        29.95
ROLLA          CLOUDY    55  55 100 NE15      29.87S
RUGBY          FAIR      59  57  94 NE17      29.82R
 ***** THE ABOVE OBSERVATIONS ARE NON NWS ARE NOT QUALITY
        CONTROLLED AND MAY MIS-REPORT RAIN FOR SNOW...
$$

 *****  OTHER OBSERVATIONS SOUTHEAST NORTH DAKOTA *****

CITY           SKY/WX    TMP DP  RH WIND       PRES   REMARKS
COOPERSTOWN    NOT AVBL
VALLEY CITY    FAIR      64  63  94 S9        29.80F
OAKES            N/A    N/A N/A N/A MISG        N/A
GWINNER        FAIR      63  59  88 N8        29.77S
SHEYENNE NWR     N/A     60  59  95 NE3       29.95S
BUFFALO          N/A     63  56  79 SW10        N/A
WYNDMERE         N/A    N/A N/A N/A N6          N/A
 ***** THE ABOVE OBSERVATIONS ARE NON NWS ARE NOT QUALITY
       CONTROLLED AND MAY MIS-REPORT RAIN FOR SNOW...
$$

  *****  WEATHER ACROSS NORTHERN MINNESOTA  *****

CITY           SKY/WX    TMP DP  RH WIND       PRES   REMARKS
FLAG ISLAND    LGT RAIN  63  59  88 CALM      29.83S
WARROAD        PTCLDY    61  57  88 E6        29.83S
ROSEAU         MOCLDY    63  57  82 CALM      29.82S
HALLOCK        MOSUNNY   66  57  72 SE9       29.78R
THF RVR FALLS  CLOUDY    64  55  72 SE10      29.81S
HALSTAD        NOT AVBL
FOSSTON        CLOUDY    63  54  72 SE6       29.81R
BAUDETTE       PTCLDY    67  54  63 E10       29.83S
WASKISH        PTCLDY    64  55  72 SE6       29.84R
CROOKSTON      CLOUDY    63  61  94 SE7       29.78R
$$
  *****  WEATHER ACROSS CENTRAL AND WEST MINNESOTA  *****

CITY           SKY/WX    TMP DP  RH WIND       PRES   REMARKS
BEMIDJI        CLOUDY    62  56  80 SE8       29.82S
PARK RAPIDS    CLOUDY    64  55  72 E7        29.81S
WADENA         MOCLDY    61  55  82 E6        29.80S
DETROIT LAKES  CLOUDY    63  54  72 SE10      29.81S
MOORHEAD       LGT RAIN  63  61  94 CALM      29.78S
FERGUS FALLS   CLOUDY    64  57  77 E10       29.74S
ELBOW LAKE     CLOUDY    63  59  86 E10       29.77S
MORRIS MN      DRIZZLE   64  61  88 NE9       29.75R
STAPLES        CLOUDY    61  57  88 NE3       29.80S
WHEATON        MOCLDY    66  61  82 NW14G20   29.78R
$$
  *****  WEATHER ELSEWHERE ACROSS MINNESOTA  *****

CITY           SKY/WX    TMP DP  RH WIND       PRES   REMARKS
DULUTH         CLOUDY    52  50  93 E12       29.82F FOG
INTRNTL FALLS  CLOUDY    65  53  65 E6        29.84S
ELY            LGT RAIN  57  54  88 E5        29.84F
CLOQUET        CLOUDY    54  52  94 E7        29.81F
BRAINERD       CLOUDY    60  57  89 NE8       29.80S
HIBBING        CLOUDY    59  56  89 E7        29.81F
ALEXANDRIA     CLOUDY    61  58  90 E9        29.79R
SAINT CLOUD    CLOUDY    61  59  93 NE6       29.76F
MINNEAPOLIS    PTCLDY    65  60  84 N7        29.74S
$$

  *****  WEATHER ACROSS SOUTH DAKOTA  *****

CITY           SKY/WX    TMP DP  RH WIND       PRES   REMARKS
SIOUX FALLS    MOCLDY    71  58  63 NE6       29.72R
BROOKINGS      PTCLDY    69  56  62 N6        29.73R
WATERTOWN      CLEAR     66  55  67 N12       29.74R
HURON          CLEAR     66  59  78 N9        29.72S
SISSETON         N/A     66  57  72 N16       29.75R
ABERDEEN       CLOUDY    65  58  78 NW8       29.75S
MITCHELL       CLOUDY    72  58  61 CALM      29.73R
PIERRE         MOSUNNY   69  52  54 CALM      29.75F
MOBRIDGE       CLOUDY    69  50  50 W3        29.76R
RAPID CITY     PTSUNNY   61  48  62 SE8       29.83S
$$

  *****  SOME WEATHER IN NEARBY STATES *****

CITY           SKY/WX    TMP DP  RH WIND       PRES   REMARKS
GLASGOW MT     PTSUNNY   69  45  41 E3        29.80S
GREAT FALLS MT CLOUDY    59  40  49 NW9       29.87R
CHEYENNE WY    PTSUNNY   51  40  65 NE13      29.93R
SCOTTSBLUFF NE CLOUDY    60  45  57 CALM      29.86F
OMAHA NE       CLOUDY    74  62  66 SE14      29.69R
DES MOINES IA  CLOUDY    74  61  63 NE7       29.70F
DAVENPORT IA   MOCLDY    75  67  76 S13       29.75S
CHICAGO IL     CLOUDY    76  66  71 S9        29.82S
EAU CLAIRE WI  CLOUDY    67  65  93 W6        29.73R
LA CROSSE WI   PTCLDY    71  67  87 CALM      29.71R
$$

  *****  SOME NATIONAL WEATHER *****

CITY           SKY/WX    TMP DP  RH WIND       PRES   REMARKS
LA GUARDIA NY  MOCLDY    74  67  78 S8        30.02R
RALEIGH NC     PTCLDY    78  61  55 SE5       30.09S
ATLANTA GA     PTCLDY    79  59  50 SE7       30.04R
NEW ORLEANS LA CLOUDY    80  68  66 SE12      29.93R
OKLAHOMA CITY  CLOUDY    69  60  73 SE12      29.68R
ALBUQUERQUE NM PTSUNNY   71  26  18 SW21G38   29.88R
SALT LAKE CITY PTSUNNY   70  34  26 N6        29.88S
LOS ANGELES CA MOSUNNY   64  56  75 W14       29.85S
BOISE ID       SUNNY     68  23  18 N17       29.91F
SEATTLE WA     PTSUNNY   58  44  60 NW7       30.12S
$$

*** WEATHER ACROSS MANITOBA...SASKATCHEWAN AND ONTARIO ***
                ***ONTARIO***

CITY           SKY/WX    TMP DP  RH WIND       PRES   REMARKS
GERALDTON      CLOUDY    68  57  68 S6        29.92R
THUNDER BAY    CLOUDY    48  46  93 E13       29.91R
SIOUX LOOKOUT  CLOUDY    63  57  82 NE3       29.89R
TORONTO        MOCLDY    81  63  54 SW13      29.95R
BIG TROUT LK   CLOUDY    43  37  81 NE7       30.13R
PICKLE LAKE    LGT RAIN  52  52 100 NE12G22   29.96F FOG
DRYDEN         CLOUDY    63  61  94 NE3       29.88S
KENORA         PTCLDY    61  59  94 SE7       29.87R
$$
                *** MANITOBA***

CITY           SKY/WX    TMP DP  RH WIND       PRES   REMARKS
BRANDON        CLOUDY    55  50  82 NE18G25   29.89S
DAUPHIN        CLOUDY    52  46  82 N13G20    29.96S
ISLAND LAKE    CLOUDY    45  37  76 NE7       30.13S
PILOT MOUND      N/A     55  54  94 N12         N/A
THE PAS        MOSUNNY   52  39  62 E5        30.06S
THOMPSON       PTSUNNY   43  34  70 E9        30.18
WINNIPEG       MOSUNNY   61  55  82 N20G25    29.83R
LYNN LAKE      SUNNY     50  34  53 E14       30.12F
CHURCHILL      CLOUDY    32  25  74 E6        30.36F
GILLAM         CLOUDY    39  32  75 E8G18     30.25S
$$
                ***SASKATCHEWAN***

CITY           SKY/WX    TMP DP  RH WIND       PRES   REMARKS
ESTEVAN        PTSUNNY   57  55  94 E9        29.86F
KINDERSLEY     PTSUNNY   59  50  72 W13       29.81R
LLOYDMINSTER   PTSUNNY   55  52  88 E10       29.83S
PRINCE ALBERT  PTSUNNY   61  48  63 E13       29.92F
REGINA         PTSUNNY   64  50  59 E14       29.87R
YORKTON        SUNNY     59  50  72 NE14      29.92R   C1F1C2F2C3F3C4F4C5F5C6F6C7F7C8F8C9F9CaFaCbFbCcFcCdFdCe!



USA.gov is the U.S. government's official web portal to all federal, state and local government web resources and services.